Waarnemingen

Advertentie
Mijn weer
La Roda de Andalucia, Spanje (8399): temperatuur & dauwpunt: 15.09.2018 23:00:00 - 21.09.2018 23:00:00 (CEST)La Roda de Andalucia, Spanje (8399): windsnelheid & windstoten: 15.09.2018 23:00:00 - 21.09.2018 23:00:00 (CEST)La Roda de Andalucia, Spanje (8399): windrichting: 15.09.2018 23:00:00 - 21.09.2018 23:00:00 (CEST)La Roda de Andalucia, Spanje (8399): luchtdruk: 15.09.2018 23:00:00 - 21.09.2018 23:00:00 (CEST)La Roda de Andalucia, Spanje (8399): zicht: 15.09.2018 23:00:00 - 21.09.2018 23:00:00 (CEST)La Roda de Andalucia, Spanje (8399): Zonneschijnduur: 15.09.2018 23:00:00 - 21.09.2018 23:00:00 (CEST)La Roda de Andalucia, Spanje (8399): neerslag: 15.09.2018 23:00:00 - 21.09.2018 23:00:00 (CEST)
Datum & Tijd tt [°C] td [°C] ff [km/u] ff [kn] fx [km/u] fx [kn] dd ppp [hPa] vv [km] sd [min] rr [mm]
21.09.2018 23:00:00 23,4 10,0 - - - - - 1018,3 20 0 0,0
21.09.2018 22:00:00 24,5 10,8 - - - - - 1017,7 20 0 0,0
21.09.2018 21:00:00 26,5 8,5 - - - - - 1016,5 20 0 0,0
21.09.2018 20:00:00 28,8 9,6 - - - - - 1015,5 20 21 -
21.09.2018 19:00:00 31,6 10,3 - - - - - 1014,6 20 60 0,0
21.09.2018 18:00:00 34,1 8,0 - - - - - 1014,0 20 60 0,0
21.09.2018 17:00:00 33,9 7,8 - - - - - 1014,4 20 60 0,0
21.09.2018 16:00:00 33,6 8,3 - - - - - 1014,8 20 60 0,0
21.09.2018 15:00:00 31,9 7,6 - - - - - 1015,6 19 60 0,0
21.09.2018 14:00:00 30,7 11,1 - - - - - 1016,6 20 - -
21.09.2018 13:00:00 30,4 12,3 - - - - - 1017,0 20 60 0,0
21.09.2018 12:00:00 28,4 15,0 - - - - - 1017,5 20 60 0,0
21.09.2018 11:00:00 26,1 14,5 - - - - - 1017,5 20 60 0,0
21.09.2018 10:00:00 21,9 16,0 - - - - - 1018,0 20 60 0,0
21.09.2018 09:00:00 17,9 15,9 - - - - - 1018,5 20 24 0,0
21.09.2018 08:00:00 16,7 14,9 - - - - - 1018,3 14 0 -
21.09.2018 07:00:00 16,6 14,6 - - - - - 1017,7 12 0 0,0
21.09.2018 06:00:00 17,2 14,3 - - - - - 1017,8 20 0 0,0
21.09.2018 05:00:00 18,9 14,6 - - - - - 1017,4 20 0 0,0
21.09.2018 04:00:00 19,8 14,8 - - - - - 1017,5 20 0 0,0
21.09.2018 03:00:00 20,5 14,8 - - - - - 1017,5 20 0 0,0
21.09.2018 02:00:00 20,9 15,0 - - - - - 1017,6 20 0 -
21.09.2018 01:00:00 21,3 14,9 - - - - - 1017,8 20 0 0,0
21.09.2018 00:00:00 21,7 15,1 - - - - - 1017,6 20 0 0,0
20.09.2018 23:00:00 22,2 15,5 - - - - - 1017,3 20 0 0,0
20.09.2018 22:00:00 23,0 15,3 - - - - - 1016,9 20 0 0,0
20.09.2018 21:00:00 24,2 14,6 - - - - - 1016,3 20 0 0,0
20.09.2018 20:00:00 26,2 13,4 - - - - - 1015,6 20 12 -
20.09.2018 19:00:00 28,7 13,0 - - - - - 1015,0 20 60 0,0
20.09.2018 18:00:00 30,4 12,7 - - - - - 1014,8 20 60 0,0
20.09.2018 17:00:00 30,9 12,7 - - - - - 1015,2 20 60 0,0
20.09.2018 16:00:00 31,1 13,9 - - - - - 1015,6 20 60 0,0
20.09.2018 15:00:00 30,7 14,3 - - - - - 1016,3 20 60 0,0
20.09.2018 14:00:00 29,8 15,9 - - - - - 1016,9 20 60 -
20.09.2018 13:00:00 29,0 16,6 - - - - - 1017,7 20 - -
20.09.2018 12:00:00 27,5 17,4 - - - - - 1018,2 20 60 0,0
20.09.2018 11:00:00 25,6 17,5 - - - - - 1018,6 20 - -
20.09.2018 10:00:00 - - - - - - - - - - -
20.09.2018 09:00:00 - - - - - - - - - - -
20.09.2018 08:00:00 - - - - - - - - - - -
20.09.2018 07:00:00 - - - - - - - - - - -
20.09.2018 06:00:00 - - - - - - - - - - -
20.09.2018 05:00:00 - - - - - - - - - - -
20.09.2018 04:00:00 - - - - - - - - - - -
20.09.2018 03:00:00 - - - - - - - - - - -
20.09.2018 02:00:00 - - - - - - - - - - -
20.09.2018 01:00:00 - - - - - - - - - - -
20.09.2018 00:00:00 - - - - - - - - - - -
19.09.2018 23:00:00 - - - - - - - - - - -
19.09.2018 22:00:00 - - - - - - - - - - -
19.09.2018 21:00:00 - - - - - - - - - - -
19.09.2018 20:00:00 - - - - - - - - - - -
19.09.2018 19:00:00 - - - - - - - - - - -
19.09.2018 18:00:00 - - - - - - - - - - -
19.09.2018 17:00:00 - - - - - - - - - - -
19.09.2018 16:00:00 - - - - - - - - - - -
19.09.2018 15:00:00 32,6 10,0 - - - - - 1016,4 20 60 0,0
19.09.2018 14:00:00 31,4 15,3 - - - - - 1017,0 19 60 -
19.09.2018 13:00:00 29,7 15,4 - - - - - 1017,9 20 60 0,0
19.09.2018 12:00:00 28,2 15,8 - - - - - 1018,1 17 60 0,0
19.09.2018 11:00:00 24,6 17,9 - - - - - 1018,1 16 60 0,0
19.09.2018 10:00:00 22,1 17,9 - - - - - 1018,0 17 60 0,0
19.09.2018 09:00:00 19,5 17,5 - - - - - 1018,0 11 7 0,0
19.09.2018 08:00:00 19,4 17,2 - - - - - 1017,6 10 0 -
19.09.2018 07:00:00 19,4 17,2 - - - - - 1017,4 13 0 0,0
19.09.2018 06:00:00 19,7 17,1 - - - - - 1017,1 11 0 0,0
19.09.2018 05:00:00 19,9 17,5 - - - - - 1017,2 12 0 0,0
19.09.2018 04:00:00 20,3 17,7 - - - - - 1017,2 13 0 0,0
19.09.2018 03:00:00 20,7 17,3 - - - - - 1017,0 15 0 0,0
19.09.2018 02:00:00 21,3 17,7 - - - - - 1017,0 15 0 -
19.09.2018 01:00:00 21,7 17,9 - - - - - 1016,9 14 0 0,0
19.09.2018 00:00:00 22,2 18,0 - - - - - 1016,9 17 0 0,0
18.09.2018 23:00:00 23,6 18,0 - - - - - 1016,4 16 0 0,0
18.09.2018 22:00:00 24,6 17,6 - - - - - 1015,8 20 0 0,0
18.09.2018 21:00:00 25,6 17,2 - - - - - 1014,6 19 0 0,0
18.09.2018 20:00:00 26,8 17,0 - - - - - 1013,7 20 2 -
18.09.2018 19:00:00 30,3 16,0 - - - - - 1013,1 20 45 0,0
18.09.2018 18:00:00 29,7 13,9 - - - - - 1012,5 20 19 0,0
18.09.2018 17:00:00 31,9 13,2 - - - - - 1012,3 20 60 0,0
18.09.2018 16:00:00 30,7 13,1 - - - - - 1012,9 20 60 0,0
18.09.2018 15:00:00 31,3 14,9 - - - - - 1013,4 20 60 0,0
18.09.2018 14:00:00 28,6 15,9 5 3 13 7 N 1014,3 20 57 -
18.09.2018 13:00:00 28,3 16,2 6 3 15 8 ONO 1014,8 - 60 0,0
18.09.2018 12:00:00 27,2 17,1 6 3 14 8 Z 1015,1 - 60 1,4
18.09.2018 11:00:00 24,7 18,2 4 2 11 6 Z 1015,4 - 60 0,0
18.09.2018 10:00:00 21,0 18,9 4 2 10 5 ZZW 1015,2 - 60 0,0
18.09.2018 09:00:00 19,3 17,8 2 1 6 4 ZZO 1015,2 - 4 0,0
18.09.2018 08:00:00 19,0 17,3 3 2 11 6 ZZO 1014,7 - 0 -
18.09.2018 07:00:00 19,5 17,9 7 4 13 7 Z 1014,3 - 0 0,0
18.09.2018 06:00:00 19,5 17,5 4 2 11 6 ZZW 1014,2 - 0 0,0
18.09.2018 05:00:00 20,1 17,7 7 4 15 8 Z 1014,0 - 0 0,0
18.09.2018 04:00:00 20,6 18,0 7 4 12 7 Z 1013,9 - 0 0,0
18.09.2018 03:00:00 21,3 17,9 5 3 14 8 Z 1014,2 - 0 0,0
18.09.2018 02:00:00 22,1 18,7 7 4 21 11 ZO 1014,4 - 0 -
18.09.2018 01:00:00 22,0 18,6 11 6 28 15 ZZW 1014,3 - 0 0,0
18.09.2018 00:00:00 22,3 18,7 14 8 27 14 ZZW 1014,3 - 0 0,0
17.09.2018 23:00:00 22,5 18,7 13 7 24 13 ZZW 1014,2 - 0 0,0
17.09.2018 22:00:00 23,0 18,3 10 6 22 12 ZZW 1013,5 - 0 0,0
17.09.2018 21:00:00 24,0 18,2 12 6 27 14 ZZW 1012,7 - 0 0,0
17.09.2018 20:00:00 25,0 17,5 14 8 33 18 Z 1012,4 - 10 -
17.09.2018 19:00:00 27,5 16,7 16 9 36 19 ZZO 1011,7 - 60 0,0
17.09.2018 18:00:00 28,4 16,6 16 9 37 20 Z 1011,8 - 60 0,0
17.09.2018 17:00:00 29,4 16,2 14 7 37 20 ZZO 1012,1 - 60 0,0
17.09.2018 16:00:00 29,5 16,3 17 9 37 20 Z 1012,7 - 60 0,0
17.09.2018 15:00:00 29,2 16,7 14 8 35 19 Z 1013,6 - 55 0,0
17.09.2018 14:00:00 28,1 17,9 7 4 22 12 ZO 1014,4 - 23 -
17.09.2018 13:00:00 24,7 17,7 7 4 22 12 ZZO 1015,7 - 0 0,0
17.09.2018 12:00:00 23,2 18,1 10 6 31 17 ZZO 1016,1 - 0 0,0
17.09.2018 11:00:00 22,3 18,1 8 4 24 13 ZZO 1016,3 - 0 0,0
17.09.2018 10:00:00 21,2 18,5 5 3 15 8 Z 1016,3 - 2 0,0
17.09.2018 09:00:00 19,2 17,5 7 4 13 7 Z 1016,3 - 0 0,0
17.09.2018 08:00:00 19,1 17,1 3 1 11 6 Z 1016,0 - 0 -
17.09.2018 07:00:00 20,1 17,7 6 3 28 15 Z 1015,6 - 0 0,0
17.09.2018 06:00:00 20,6 18,2 9 5 26 14 ZZO 1015,7 - 0 0,0
17.09.2018 05:00:00 20,9 17,9 13 7 35 19 Z 1016,6 - 0 0,0
17.09.2018 04:00:00 20,7 17,3 9 5 24 13 Z 1016,7 - 0 0,0
17.09.2018 03:00:00 21,0 17,2 13 7 27 14 Z 1016,7 - 0 0,0
17.09.2018 02:00:00 20,9 17,3 10 6 29 16 Z 1016,8 - 0 -
17.09.2018 01:00:00 20,4 17,2 11 6 24 13 Z 1017,2 - 0 0,0
17.09.2018 00:00:00 21,0 16,8 11 6 29 16 Z 1017,3 - 0 0,0
16.09.2018 23:00:00 21,8 16,6 13 7 29 15 Z 1017,4 - 0 0,0
16.09.2018 22:00:00 22,6 16,1 13 7 32 18 Z 1017,1 - 0 0,0
16.09.2018 21:00:00 23,2 16,2 17 9 32 17 Z 1016,5 - 0 0,0
16.09.2018 20:00:00 25,1 16,8 14 8 36 19 Z 1016,1 - 42 -
16.09.2018 19:00:00 27,3 16,9 14 7 33 18 Z 1015,3 - 60 0,0
16.09.2018 18:00:00 30,1 15,8 12 6 31 17 Z 1014,6 - 60 0,0
16.09.2018 17:00:00 30,7 13,1 6 3 15 8 OZO 1014,8 - 59 0,0
16.09.2018 16:00:00 30,2 13,1 6 3 18 10 OZO 1015,5 - 60 0,0
16.09.2018 15:00:00 28,3 13,8 6 4 17 9 NO 1016,6 - 60 0,0
16.09.2018 14:00:00 27,6 14,9 5 3 19 10 NO 1017,4 - 60 -
16.09.2018 13:00:00 26,0 15,3 6 4 13 7 N 1018,4 - 60 0,0
16.09.2018 12:00:00 25,5 15,8 4 2 15 8 OZO 1018,8 - 60 0,0
16.09.2018 11:00:00 23,0 16,8 2 1 9 5 Z 1019,1 - 60 0,0
16.09.2018 10:00:00 19,4 17,5 1 1 8 4 O 1019,5 - 60 0,0
16.09.2018 09:00:00 17,0 15,7 1 1 8 5 ZZO 1019,7 - 2 0,0
16.09.2018 08:00:00 17,2 15,7 5 3 8 4 Z 1019,2 - 0 -
16.09.2018 07:00:00 17,4 15,7 3 2 6 4 W 1018,7 - 0 0,0
16.09.2018 06:00:00 18,2 16,4 4 2 13 7 OZO 1018,3 - 0 0,0
16.09.2018 05:00:00 19,1 17,1 8 5 15 8 ZZO 1018,6 - 0 0,0
16.09.2018 04:00:00 19,1 16,9 6 3 13 7 ZO 1019,1 - 0 0,0
16.09.2018 03:00:00 18,9 16,9 6 4 13 7 ZZO 1019,7 - 0 0,0
16.09.2018 02:00:00 18,7 17,1 5 3 13 7 Z 1019,8 - 0 -
16.09.2018 01:00:00 19,1 17,2 2 1 15 8 OZO 1019,4 - 0 0,0
16.09.2018 00:00:00 19,6 17,5 7 4 21 11 Z 1019,0 - 0 0,0
15.09.2018 23:00:00 20,0 17,9 10 6 22 12 Z 1019,1 - 0 0,0

tt = temperatuur
td = dauwpunt
ff = windsnelheid
fx = windstoten
dd = windrichting
ppp = luchtdruk
vv = zicht
sd = Zonneschijnduur
rr = neerslag

Weerstations in de omgeving